Regional Weather Roundup
Issued by NWS

Home | Current Version | Previous Version | Graphics & Text | Print | Product List | Glossary On
Versions: 1 2 3 4 5 6 7 8 9 10 11 12 13 14 15 16 17 18 19 20 21 22 23 24 25 26 27 28 29 30 31 32 33 34 35 36 37 38 39 40 41 42 43 44 45 46 47 48 49 50
000
ASUS45 KBOU 190507
RWRCO

WEATHER ROUNDUP FOR COLORADO
NATIONAL WEATHER SERVICE DENVER/BOULDER CO
1100 PM MDT MON AUG 18 2014

NOTE: "FAIR" INDICATES FEW OR NO CLOUDS BELOW 12000 FEET WITH NO
SIGNIFICANT WEATHER AND/OR OBSTRUCTIONS TO VISIBILITY.

COZ001>005-013-030-031-190600-
...NORTHWEST COLORADO...

CITY           SKY/WX    TMP DP  RH WIND       PRES   REMARKS
CRAIG          PTCLDY    57  43  59 CALM      30.09S
HAYDEN         PTCLDY    63  37  39 E9        30.12S
MEEKER         PTCLDY    64  40  41 E9        30.10S
MOUNT WERNER   NOT AVBL
STEAMBOAT SPGS PTCLDY    57  41  53 NW6       30.15F
WALDEN         CLEAR     50  36  57 E5        30.25S
$$

COZ006>008-011-190600-
...WEST CENTRAL VALLEYS...

CITY           SKY/WX    TMP DP  RH WIND       PRES   REMARKS
GRAND JUNCTION PTCLDY    75  36  24 E7        29.92S
MONTROSE       MOCLDY    72  38  29 SE6       30.04S
EAGLE          CLEAR     61  37  41 CALM      30.16F
RIFLE          CLEAR     71  41  33 S8        30.02S
DELTA          MOCLDY    77  39  25 E7        29.98R
NUCLA          MOCLDY    70  37  30 E12       30.08R
$$

COZ017>023-064>068-190600-
...SOUTHWEST COLORADO...

CITY           SKY/WX    TMP DP  RH WIND       PRES   REMARKS
DURANGO        CLOUDY    76  38  25 E10G20    30.18R
CORTEZ         CLEAR     74  45  35 NW6       30.14R
PAGOSA SPRINGS CLOUDY    63  44  49 NE12      30.30S
TELLURIDE      MOCLDY    64  36  34 SE3       30.32F
WOLF CREEK PAS NOT AVBL
$$

COZ009-010-012-014-032>034-037-058>063-190600-
...CENTRAL COLORADO...

CITY           SKY/WX    TMP DP  RH WIND       PRES   REMARKS
ASPEN          CLEAR     57  38  48 S8        30.21F
BUENA VISTA    PTCLDY    57  39  49 CALM      30.28R
COPPER MTN     PTCLDY    54  25  32 S15       30.56F
BERTHOUD PASS  FAIR      45  45 100 CALM      30.62S THUNDER
COTTONWOOD PAS PTCLDY    63  32  31 CALM      30.41F
GUNNISON       MOCLDY    66  37  34 E8        30.27R
KREMMLING      PTCLDY    55  32  41 CALM      30.22S
LEADVILLE      PTCLDY    46  33  60 NE6       30.39F
MONARCH PASS   MOCLDY    50  32  50 SE8       30.67S
SALIDA         PTCLDY    69  37  30 NW5       30.30S
SUNLIGHT       CLEAR     57  34  41 CALM      30.46F
WILKERSON PASS PTCLDY    52  32  46 S5        30.55F
$$

COZ069>075-190600-
...SAN LUIS VALLEY/SANGRE DE CRISTO MOUNTAINS...

CITY           SKY/WX    TMP DP  RH WIND       PRES   REMARKS
ALAMOSA        CLOUDY    70  35  27 W8        30.24F
LA VETA PASS   CLOUDY    57  37  47 SW6       30.46S THUNDER
SAGUACHE       CLOUDY    61  43  51 CALM      30.29S
$$

COZ035-036-038>040-190600-
...NORTHERN COLORADO FRONT RANGE...

CITY           SKY/WX    TMP DP  RH WIND       PRES   REMARKS
DENVER INTL AP PTCLDY    63  45  51 SE10      30.08R
DMNS CITY PARK   N/A     66  47  50 E5G10     30.06F
AURORA         PTCLDY    62  46  56 E7        30.10R
FRONT RANGE AP PTCLDY    66  45  45 CALM      30.10R
ERIE MUNI ARPT PTCLDY    64  49  59 CALM      30.08R
BOULDER MUN AP PTCLDY    68  50  52 W3        30.10R
CENTENNIAL     PTCLDY    64  46  52 S8        30.08F
BROOMFIELD     NOT AVBL
FORT COLLINS   PTCLDY    68  48  49 E9        30.08S
LONGMONT       PTCLDY    70  48  46 CALM      30.10R
$$

COZ041-046-047-076>085-087-088-190600-
...PIKES PEAK/PALMER DIVIDE AND SOUTHERN FOOTHILLS...

CITY           SKY/WX    TMP DP  RH WIND       PRES   REMARKS
COLO. SPRINGS  PTCLDY    66  46  48 NE10      30.12S
A. F. ACADEMY  PTCLDY    67  43  41 W7        30.15R
ELLICOTT       PTCLDY    65  45  48 E14       30.10F
FALCON         PTCLDY    62  46  56 N7        30.18F
FORT CARSON    PTCLDY    66  43  42 VRB6      30.11R
LIMON          PTCLDY    68  49  50 E12       30.07R
MONUMENT HILL  MOCLDY    59  46  63 SE7       30.17F
TRINIDAD       PTCLDY    68  44  42 NW8       30.06S
$$

COZ042>045-048>051-090-091-190600-
...NORTHEAST COLORADO...

CITY           SKY/WX    TMP DP  RH WIND       PRES   REMARKS
GREELEY ARPT   PTCLDY    61  46  59 N6        30.07R
AKRON          CLEAR     64  55  72 S10       30.02R
BURLINGTON     PTCLDY    65  56  72 E10       30.00R
WRAY             N/A     67  52  58 S6        29.96S
STERLING       CLEAR     64  57  77 W9        29.98R
HOLYOKE        NOT AVBL
FORT MORGAN    CLEAR     60  53  75 N6        30.03R
$$

COZ086-089-092>099-190600-
...SOUTHEAST COLORADO...

CITY           SKY/WX    TMP DP  RH WIND       PRES   REMARKS
PUEBLO         PTCLDY    72  43  35 N7        30.00R
LA JUNTA       PTCLDY    74  43  32 NE6       29.93S
LAMAR          CLEAR     69  48  47 NE7       29.88S
SPRINGFIELD      N/A     72  47  40 S12       29.97S
$$



USA.gov is the U.S. government's official web portal to all federal, state and local government web resources and services.